When you browse on this site, cookies collect data to enhance your experience and personalize the content and advertising you see.
Visit our Privacy Policy to learn more. By continuing to use the site, you agree to this use of cookies and data.
  • In Sweden
  • List of Countries
  • For 7 days
  • Water Temperature
  • Weather Map
  • Weather Widgets
  • user-avatar
    Login

    Hourly Weather Stockholm

    Today, 19 October, Saturday

    Time Temperature Precipitation Wind Pressure Humidity
    00:00 +11°C° 0 mm 4 mps 752 mmHg 95%
    01:00 +10°C° 0 mm 5 mps 751 mmHg 94%
    02:00 +10°C° 0.7 mm 5 mps 751 mmHg 93%
    03:00 +10°C° 0.7 mm 5 mps 750 mmHg 92%
    04:00 +10°C° 0.7 mm 5 mps 750 mmHg 91%
    05:00 +10°C° 0.1 mm 5 mps 750 mmHg 89%
    06:00 +9°C° 0.1 mm 5 mps 750 mmHg 87%
    07:00 +9°C° 0 mm 5 mps 750 mmHg 86%
    08:00 +10°C° 0 mm 5 mps 750 mmHg 83%
    09:00 +10°C° 0 mm 6 mps 751 mmHg 79%
    10:00 +11°C° 0 mm 6 mps 751 mmHg 76%
    11:00 +11°C° 0 mm 6 mps 752 mmHg 75%
    12:00 +11°C° 0 mm 6 mps 752 mmHg 73%
    13:00 +13°C° 0 mm 5 mps 753 mmHg 72%
    14:00 +12°C° 0 mm 5 mps 753 mmHg 74%
    15:00 +12°C° 0 mm 5 mps 753 mmHg 77%
    16:00 +11°C° 0 mm 4 mps 753 mmHg 79%
    17:00 +11°C° 0 mm 4 mps 754 mmHg 81%
    18:00 +10°C° 0 mm 4 mps 755 mmHg 82%
    19:00 +10°C° 0 mm 4 mps 755 mmHg 84%
    20:00 +10°C° 0 mm 4 mps 755 mmHg 86%
    21:00 +8°C° 0 mm 4 mps 755 mmHg 88%
    22:00 +9°C° 0 mm 3 mps 756 mmHg 90%
    23:00 +9°C° 0 mm 3 mps 756 mmHg 90%

    Tomorrow, 20 October, Sunday

    Time Temperature Precipitation Wind Pressure Humidity
    00:00 +9°C° 0 mm 3 mps 756 mmHg 91%
    01:00 +9°C° 0 mm 2 mps 756 mmHg 91%
    02:00 +9°C° 0.5 mm 2 mps 756 mmHg 92%
    03:00 +9°C° 0.5 mm 2 mps 756 mmHg 93%
    04:00 +9°C° 0.5 mm 2 mps 756 mmHg 94%
    05:00 +9°C° 1.6 mm 2 mps 756 mmHg 94%
    06:00 +9°C° 1.6 mm 3 mps 756 mmHg 94%
    07:00 +9°C° 1.6 mm 3 mps 756 mmHg 95%
    08:00 +9°C° 0.4 mm 3 mps 756 mmHg 94%
    09:00 +10°C° 0.4 mm 2 mps 756 mmHg 94%
    10:00 +10°C° 0.4 mm 2 mps 756 mmHg 94%
    11:00 +10°C° 0 mm 2 mps 756 mmHg 92%
    12:00 +12°C° 0 mm 2 mps 756 mmHg 90%
    13:00 +12°C° 0 mm 2 mps 757 mmHg 89%
    14:00 +11°C° 0 mm 1 mps 757 mmHg 90%
    15:00 +11°C° 0 mm 1 mps 757 mmHg 91%
    16:00 +11°C° 0 mm 1 mps 757 mmHg 93%
    17:00 +10°C° 0 mm 1 mps 757 mmHg 93%
    18:00 +10°C° 0 mm 1 mps 758 mmHg 94%
    19:00 +9°C° 0 mm 2 mps 758 mmHg 95%
    20:00 +8°C° 0 mm 2 mps 759 mmHg 95%
    21:00 +8°C° 0 mm 2 mps 759 mmHg 95%
    22:00 +8°C° 0 mm 2 mps 759 mmHg 96%
    23:00 +8°C° 0 mm 2 mps 760 mmHg 95%

    Day after tomorrow, 21 October, Monday

    Time Temperature Precipitation Wind Pressure Humidity
    00:00 +8°C° 0 mm 2 mps 760 mmHg 94%
    01:00 +7°C° 0 mm 2 mps 760 mmHg 94%
    02:00 +7°C° 0 mm 2 mps 761 mmHg 93%
    03:00 +7°C° 0 mm 2 mps 761 mmHg 93%
    04:00 +7°C° 0 mm 2 mps 761 mmHg 92%
    05:00 +8°C° 0 mm 1 mps 761 mmHg 93%
    06:00 +8°C° 0 mm 1 mps 762 mmHg 93%
    07:00 +7°C° 0 mm 1 mps 762 mmHg 93%
    08:00 +8°C° 0 mm 1 mps 763 mmHg 91%
    09:00 +8°C° 0 mm 1 mps 763 mmHg 89%
    10:00 +9°C° 0 mm 1 mps 763 mmHg 87%
    11:00 +9°C° 0 mm 1 mps 764 mmHg 87%
    12:00 +10°C° 0 mm 1 mps 764 mmHg 87%
    13:00 +9°C° 0 mm 2 mps 764 mmHg 86%
    14:00 +9°C° 0 mm 2 mps 764 mmHg 88%
    15:00 +9°C° 0 mm 2 mps 764 mmHg 90%
    16:00 +9°C° 0 mm 2 mps 764 mmHg 91%
    17:00 +8°C° 0 mm 2 mps 764 mmHg 92%
    18:00 +8°C° 0 mm 3 mps 764 mmHg 92%
    19:00 +8°C° 0 mm 3 mps 764 mmHg 93%
    20:00 +7°C° 0 mm 3 mps 764 mmHg 93%
    21:00 +7°C° 0 mm 3 mps 763 mmHg 93%
    22:00 +7°C° 0 mm 3 mps 763 mmHg 94%
    23:00 +7°C° 0 mm 3 mps 763 mmHg 94%

    22 October, Tuesday

    Time Temperature Precipitation Wind Pressure Humidity
    00:00 +7°C° 0 mm 3 mps 763 mmHg 94%
    01:00 +7°C° 0 mm 3 mps 763 mmHg 95%
    02:00 +7°C° 0 mm 3 mps 762 mmHg 94%
    03:00 +7°C° 0 mm 3 mps 762 mmHg 94%
    04:00 +7°C° 0 mm 3 mps 762 mmHg 94%
    05:00 +6°C° 0 mm 4 mps 762 mmHg 93%
    06:00 +6°C° 0 mm 4 mps 761 mmHg 93%
    07:00 +7°C° 0 mm 4 mps 761 mmHg 93%
    08:00 +7°C° 0 mm 4 mps 761 mmHg 91%
    09:00 +8°C° 0 mm 4 mps 760 mmHg 89%
    10:00 +10°C° 0 mm 4 mps 760 mmHg 88%
    11:00 +10°C° 0 mm 5 mps 760 mmHg 87%
    12:00 +10°C° 0 mm 5 mps 759 mmHg 86%
    13:00 +12°C° 0 mm 5 mps 759 mmHg 85%
    14:00 +12°C° 0 mm 5 mps 759 mmHg 84%
    15:00 +12°C° 0 mm 5 mps 759 mmHg 84%
    16:00 +12°C° 0 mm 5 mps 758 mmHg 83%
    17:00 +10°C° 0 mm 5 mps 758 mmHg 83%
    18:00 +10°C° 0 mm 5 mps 758 mmHg 83%
    19:00 +10°C° 0 mm 6 mps 758 mmHg 83%
    20:00 +9°C° 0 mm 6 mps 758 mmHg 84%
    21:00 +9°C° 0 mm 6 mps 757 mmHg 85%
    22:00 +9°C° 0 mm 6 mps 757 mmHg 85%
    23:00 +9°C° 0 mm 6 mps 757 mmHg 84%

    23 October, Wednesday

    Time Temperature Precipitation Wind Pressure Humidity
    00:00 +10°C° 0 mm 6 mps 757 mmHg 83%
    01:00 +10°C° 0 mm 6 mps 757 mmHg 82%
    02:00 +10°C° 0 mm 6 mps 757 mmHg 82%
    03:00 +10°C° 0 mm 6 mps 756 mmHg 83%
    04:00 +10°C° 0 mm 6 mps 756 mmHg 83%
    05:00 +10°C° 0 mm 6 mps 756 mmHg 82%
    06:00 +10°C° 0 mm 6 mps 756 mmHg 81%
    07:00 +10°C° 0 mm 5 mps 756 mmHg 80%
    08:00 +10°C° 0 mm 6 mps 756 mmHg 79%
    09:00 +10°C° 0 mm 6 mps 756 mmHg 77%
    10:00 +10°C° 0 mm 6 mps 756 mmHg 75%
    11:00 +10°C° 0 mm 6 mps 756 mmHg 73%
    12:00 +10°C° 0 mm 6 mps 757 mmHg 70%
    13:00 +10°C° 0 mm 6 mps 757 mmHg 68%
    14:00 +10°C° 0 mm 6 mps 757 mmHg 69%
    15:00 +9°C° 0 mm 6 mps 757 mmHg 70%
    16:00 +9°C° 0 mm 6 mps 757 mmHg 72%
    17:00 +9°C° 0 mm 5 mps 757 mmHg 73%
    18:00 +9°C° 0 mm 5 mps 757 mmHg 74%
    19:00 +8°C° 0 mm 5 mps 758 mmHg 76%
    20:00 +8°C° 0 mm 5 mps 758 mmHg 77%
    21:00 +8°C° 0 mm 4 mps 758 mmHg 78%
    22:00 +8°C° 0 mm 4 mps 758 mmHg 79%
    23:00 +8°C° 0 mm 4 mps 758 mmHg 80%

    24 October, Thursday

    Time Temperature Precipitation Wind Pressure Humidity
    00:00 +8°C° 0 mm 4 mps 758 mmHg 80%
    01:00 +8°C° 0 mm 4 mps 758 mmHg 80%
    02:00 +7°C° 0 mm 4 mps 758 mmHg 82%
    03:00 +7°C° 0 mm 5 mps 758 mmHg 83%
    04:00 +6°C° 0 mm 5 mps 758 mmHg 84%
    05:00 +7°C° 0 mm 5 mps 758 mmHg 83%
    06:00 +7°C° 0 mm 5 mps 758 mmHg 83%
    07:00 +7°C° 0 mm 5 mps 758 mmHg 82%
    08:00 +8°C° 0 mm 5 mps 758 mmHg 79%
    09:00 +8°C° 0 mm 5 mps 758 mmHg 75%
    10:00 +8°C° 0 mm 5 mps 758 mmHg 72%
    11:00 +9°C° 0 mm 6 mps 758 mmHg 71%
    12:00 +9°C° 0 mm 6 mps 758 mmHg 70%
    13:00 +10°C° 0 mm 6 mps 758 mmHg 69%
    14:00 +9°C° 0 mm 5 mps 758 mmHg 71%
    15:00 +9°C° 0 mm 5 mps 758 mmHg 73%
    16:00 +8°C° 0 mm 5 mps 758 mmHg 75%
    17:00 +8°C° 0 mm 5 mps 758 mmHg 76%
    18:00 +7°C° 0 mm 5 mps 758 mmHg 78%
    19:00 +7°C° 0 mm 5 mps 758 mmHg 80%
    20:00 +7°C° 0 mm 5 mps 758 mmHg 82%
    21:00 +6°C° 0 mm 5 mps 758 mmHg 83%
    22:00 +6°C° 0 mm 5 mps 758 mmHg 85%
    23:00 +6°C° 0 mm 5 mps 758 mmHg 86%
    Show more